Regional Weather Roundup
Issued by NWS

Home | Current Version | Previous Version | Graphics & Text | Print | Product List | Glossary On
Versions: 1 2 3 4 5 6 7 8 9 10 11 12 13 14 15 16 17 18 19 20 21 22 23 24 25 26 27 28 29 30 31 32 33 34 35 36 37 38 39 40 41 42 43 44 45 46 47 48 49 50
000
ASUS43 KLOT 070912
RWRIL

ILLINOIS REGIONAL WEATHER ROUNDUP
NATIONAL WEATHER SERVICE CHICAGO/ROMEOVILLE IL
300 AM CST WED DEC 07 2016

NOTE: "FAIR" INDICATES FEW OR NO CLOUDS BELOW 12,000 FEET WITH NO
SIGNIFICANT WEATHER AND/OR OBSTRUCTIONS TO VISIBILITY.

* THESE STATIONS ARE NOT UNDER NWS QUALITY CONTROL. THEY ALSO MAY NOT
  REPORT WEATHER SUCH AS PRECIPITATION OR FOG.

ILZ001-002-007-009-015-016-024-071000-
NORTHWEST ILLINOIS

CITY           SKY/WX    TMP DP  RH WIND       PRES   REMARKS
MOLINE         CLEAR     27  15  61 W22G29    30.08R WCI  13
STERLING*      MOCLDY    25  19  78 W20       30.05R WCI  11
SAVANNA*       PTCLDY    24  16  70 W13       30.06R WCI  12
$$

ILZ003-004-008-010-011-017-018-071000-
NORTH CENTRAL ILLINOIS

CITY           SKY/WX    TMP DP  RH WIND       PRES   REMARKS
ROCKFORD       PTCLDY    24  16  71 W16G23    30.03R WCI  11
FREEPORT*      CLEAR     22  15  74 W17G25    30.02R WCI   8
ROCHELLE*      PTCLDY    24  19  78 W14       30.04R WCI  12
DE KALB*       MOCLDY    24  18  76 W17       30.02R WCI  11
$$

ILZ005-006-012>014-019>023-071000-
NORTHEAST ILLINOIS

CITY           SKY/WX    TMP DP  RH WIND       PRES   REMARKS
CHICAGO-OHARE  MOCLDY    26  18  71 W16G25    30.00S WCI  14
CHICAGO-MIDWAY CLOUDY    28  17  63 W18G25    30.02S WCI  15
AURORA         PTCLDY    27  18  69 W16       30.03R WCI  15
LANSING*       PTCLDY    28  20  74 W13G18    30.04S WCI  17
JOLIET*        PTCLDY    29  21  71 W7        30.05F WCI  22
WAUKEGAN       CLEAR     25  16  68 W10G22    29.96S WCI  15
DUPAGE AIRPORT CLOUDY    25  16  68 W17       30.01S WCI  12
KANKAKEE*      CLOUDY    28  21  75 W10       30.08R WCI  19
WHEELING       PTCLDY    26  17  68 W13G23    30.01S WCI  15
MORRIS*        MOCLDY    28  20  71 W13       30.04S WCI  17
ROMEOVILLE*    CLOUDY    27  22  84 W14       30.04S WCI  15
NORTHERLY ISL    N/A     28  18  66 W15         N/A  WCI  17
$$

LMZ740>746-071000-
SOUTHERN LAKE MICHIGAN

STATION/POSITION SKY/WX   TEMP    WIND        PRES    VSBY  WAVE
                          AIR SEA DIR/SP/G                  HT/PER
                          (F)     (DEG/KT/KT) (MB)    (MI)  (FT/S)
HARRISON CRIB              29     270/ 25/ 27   N/A
BURNHAM HARBOR             28     250/ 10/ 15   N/A
CALUMET HARBOR             28     240/ 11/ 16 1016.1R
BURNS HARBOR               31     260/ 23/ 25 1016.9R
MICHIGAN CITY              30     230/ 27/ 30   N/A
$$

ILZ025>027-034>036-040-047-049-050-058-095>099-071000-
WEST-CENTRAL ILLINOIS

CITY           SKY/WX    TMP DP  RH WIND       PRES   REMARKS
QUINCY         PTCLDY    29  17  61 W9        30.14R WCI  20
GALESBURG*     PTCLDY    26  18  73 W12       30.10R WCI  15
MACOMB*        PTCLDY    28  19  68 NW14      30.13S WCI  17
JACKSONVILLE*  PTCLDY    26  20  77 W8        30.12S WCI  18
PITTSFIELD*    CLOUDY    30  19  65 W5        30.14R WCI  25
$$

ILZ028>032-037-038-041>044-048-051>054-059>061-071000-
CENTRAL ILLINOIS

CITY           SKY/WX    TMP DP  RH WIND       PRES   REMARKS
PONTIAC        CLOUDY    29  24  79 W10       30.08F WCI  20
BLOOMINGTON    CLOUDY    27  19  72 W13       30.07F WCI  16
DECATUR        MOCLDY    30  19  63 NW10      30.09F WCI  21
PEORIA         PTCLDY    29  17  61 W12       30.10F WCI  19
LACON*         CLOUDY    28  18  65 W12       30.08S WCI  18
LINCOLN*       CLOUDY    30  21  68 W3        30.10S
SPRINGFIELD    PTCLDY    31  21  66 W6        30.12S WCI  25
TAYLORVILLE    CLOUDY    30  20  66 NW8       30.12R WCI  23
$$

ILZ033-039-045-046-055>057-062-063-071000-
EAST-CENTRAL ILLINOIS

CITY           SKY/WX    TMP DP  RH WIND       PRES   REMARKS
CHAMPAIGN      CLOUDY    29  22  75 W9        30.08F WCI  20
RANTOUL*       CLOUDY    31  26  83 NW8       30.07F WCI  23
MATTOON        MOCLDY    30  21  69 NW9       30.10R WCI  22
PARIS*         PTCLDY    29  25  83 NW5       30.10F WCI  24
$$

ILZ079-100>102-071000-
SOUTHWEST ILLINOIS

CITY           SKY/WX    TMP DP  RH WIND       PRES   REMARKS
ALTON          PTCLDY    31  20  63 NW5       30.14S WCI  27
BELLEVILLE     CLOUDY    32  19  58 NW6       30.14R WCI  27
CAHOKIA*       PTCLDY    33  17  51 NW8       30.15R WCI  26
SPARTA*        CLOUDY    31  23  70 CALM      30.16R
$$

ILZ064>066-069>071-074>076-080>082-084>086-088>090-092>094-071000-
SOUTH-CENTRAL ILLINOIS

CITY           SKY/WX    TMP DP  RH WIND       PRES   REMARKS
CARBONDALE     MOCLDY    33  26  75 CALM      30.16R
CAIRO*         MOCLDY    36  28  75 CALM      30.16S
EFFINGHAM*     CLOUDY    32  24  72 NW8       30.14F WCI  25
MARION         CLOUDY    36  25  64 CALM      30.16R
CENTRALIA*     CLOUDY    32  25  76 CALM      30.12F
SALEM*         CLOUDY    33  23  68 NW5       30.13S WCI  28
METROPOLIS*    MOCLDY    35  29  79 CALM      30.16S
$$

ILZ067-068-072-073-078-083-087-091-071000-
SOUTHEAST ILLINOIS

CITY           SKY/WX    TMP DP  RH WIND       PRES   REMARKS
LAWRENCEVILLE  PTCLDY    31  25  78 NW5       30.14R WCI  26
FLORA*         MOCLDY    33  26  75 N3        30.14S
FAIRFIELD*     MOCLDY    32  26  79 CALM      30.13F
HARRISBURG*    CLOUDY    34  28  76 N3        30.16R
ROBINSON*      CLOUDY    31  24  75 NW3       30.14S
CARMI*         CLOUDY    33  30  89 NW5       30.14F WCI  28
$$

ABBREVIATIONS USED IN REMARKS
   TC - TEMPERATURE IN CELSIUS
  WCI - WIND CHILL INDEX
   HX - HEAT INDEX
  VSB - VISIBILITY
$$




USA.gov is the U.S. government's official web portal to all federal, state and local government web resources and services.